sat.trackr.live / text

‹ back to catalog

KUIPER-00029

NORAD 63742 · 2025-088U

PAYLOAD ACTIVE UNKNOWN

§ Identity

Operator
Country
US
Launch date
2025-04-28
Launch site
AFETR
Launch vehicle
Mass (kg)
RCS (m²)

External: N2YO · Heavens-Above · Gunter

§ Orbital elements

Epoch: 2026-05-25T04:13:00.105024Z

Period
97.52 min
Inclination
51.9017°
Eccentricity
0.0002980
Mean motion
14.76578045 rev/d
Perigee alt
638.1 km
Apogee alt
642.2 km
Semi-major
7,018.3 km
B*
2.6387e-4
RAAN
113.4169°
Arg perigee
82.6742°
Mean anomaly
277.4558°
Rev number
5,893

§ Raw data

KUIPER-000291 63742U 25088U   26145.17569566  .00001643  00000+0  26387-3 0  99902 63742  51.9017 113.4169 0002980  82.6742 277.4558 14.76578045 58930

JSON: /api/v1/satellites/63742 · /tle

For live sub-satellite position, see the globe view (requires WebGL).

§ Visibility from observer

Set your observer location to see the next 7 days of passes ≥ 10°. The values pass through the URL so the page stays shareable.

No JS? Fill the form by hand. The geolocation button needs JavaScript.